Time,TemperatureF,DewpointF,PressureIn,WindDirection,WindDirectionDegrees,WindSpeedMPH,WindSpeedGustMPH,Humidity,HourlyPrecipIn,Conditions,Clouds,dailyrainin,SoftwareType,DateUTC
2013-02-06 00:02:00,39.0,30.0,29.89,WSW,246,0.0,2.0,71,0.00,,,0.00,,2013-02-06 05:02:00,
2013-02-06 00:12:00,39.0,30.0,29.89,WSW,246,0.0,2.0,71,0.00,,,0.00,,2013-02-06 05:12:00,
2013-02-06 00:22:00,38.0,30.0,29.90,WSW,246,0.0,2.0,72,0.00,,,0.00,,2013-02-06 05:22:00,
2013-02-06 00:32:00,38.0,30.0,29.90,WSW,246,0.0,1.0,74,0.00,,,0.00,,2013-02-06 05:32:00,
2013-02-06 00:42:00,38.0,30.0,29.90,WSW,246,0.0,1.0,74,0.00,,,0.00,,2013-02-06 05:42:00,
2013-02-06 00:53:00,37.0,30.0,29.91,WSW,246,0.0,2.0,75,0.00,,,0.00,,2013-02-06 05:53:00,
2013-02-06 01:01:00,37.0,30.0,29.91,WSW,246,0.0,2.0,75,0.00,,,0.00,,2013-02-06 06:01:00,
2013-02-06 01:11:00,37.0,30.0,29.91,WSW,246,0.0,2.0,75,0.00,,,0.00,,2013-02-06 06:11:00,
2013-02-06 01:22:00,37.0,30.0,29.90,WSW,248,0.0,2.0,76,0.00,,,0.00,,2013-02-06 06:22:00,
2013-02-06 01:32:00,37.0,30.0,29.90,WSW,248,0.0,2.0,76,0.00,,,0.00,,2013-02-06 06:32:00,
2013-02-06 01:42:00,37.0,30.0,29.90,WSW,248,0.0,2.0,76,0.00,,,0.00,,2013-02-06 06:42:00,
2013-02-06 01:51:00,36.0,29.0,29.91,WSW,248,0.0,2.0,77,0.00,,,0.00,,2013-02-06 06:51:00,
2013-02-06 02:02:00,36.0,29.0,29.91,WSW,248,0.0,2.0,77,0.00,,,0.00,,2013-02-06 07:02:00,
2013-02-06 02:11:00,36.0,29.0,29.91,WSW,248,0.0,2.0,77,0.00,,,0.00,,2013-02-06 07:11:00,
2013-02-06 02:22:00,36.0,30.0,29.91,WSW,248,0.0,2.0,78,0.00,,,0.00,,2013-02-06 07:22:00,
2013-02-06 02:32:00,36.0,30.0,29.91,WSW,248,0.0,2.0,78,0.00,,,0.00,,2013-02-06 07:32:00,
2013-02-06 02:42:00,36.0,30.0,29.91,WSW,248,0.0,2.0,78,0.00,,,0.00,,2013-02-06 07:42:00,
2013-02-06 02:51:00,36.0,30.0,29.91,WSW,248,0.0,1.0,78,0.00,,,0.00,,2013-02-06 07:51:00,
2013-02-06 03:01:00,36.0,30.0,29.91,WSW,248,0.0,1.0,79,0.00,,,0.00,,2013-02-06 08:01:00,
2013-02-06 03:11:00,36.0,30.0,29.91,WSW,248,0.0,1.0,79,0.00,,,0.00,,2013-02-06 08:11:00,
2013-02-06 03:21:00,35.0,29.0,29.91,WSW,248,0.0,0.0,79,0.00,,,0.00,,2013-02-06 08:21:00,
2013-02-06 03:32:00,35.0,29.0,29.92,WSW,248,0.0,1.0,80,0.00,,,0.00,,2013-02-06 08:32:00,
2013-02-06 03:42:00,35.0,29.0,29.92,WSW,248,0.0,1.0,80,0.00,,,0.00,,2013-02-06 08:42:00,
2013-02-06 03:53:00,35.0,29.0,29.92,WSW,248,0.0,2.0,79,0.00,,,0.00,,2013-02-06 08:53:00,
2013-02-06 04:02:00,35.0,29.0,29.92,WSW,248,0.0,2.0,79,0.00,,,0.00,,2013-02-06 09:02:00,
2013-02-06 04:11:00,35.0,29.0,29.92,WSW,248,0.0,2.0,79,0.00,,,0.00,,2013-02-06 09:11:00,
2013-02-06 04:22:00,35.0,29.0,29.92,WSW,248,0.0,1.0,80,0.00,,,0.00,,2013-02-06 09:22:00,
2013-02-06 04:32:00,35.0,29.0,29.93,WSW,248,0.0,0.0,80,0.00,,,0.00,,2013-02-06 09:32:00,
2013-02-06 04:42:00,35.0,29.0,29.93,WSW,248,0.0,0.0,80,0.00,,,0.00,,2013-02-06 09:42:00,
2013-02-06 04:52:00,35.0,29.0,29.93,WSW,248,0.0,1.0,80,0.00,,,0.00,,2013-02-06 09:52:00,
2013-02-06 05:01:00,35.0,29.0,29.94,WSW,248,0.0,1.0,79,0.00,,,0.00,,2013-02-06 10:01:00,
2013-02-06 05:11:00,35.0,29.0,29.94,WSW,248,0.0,1.0,79,0.00,,,0.00,,2013-02-06 10:11:00,
2013-02-06 05:22:00,35.0,29.0,29.94,WSW,248,0.0,0.0,79,0.00,,,0.00,,2013-02-06 10:22:00,
2013-02-06 05:32:00,35.0,29.0,29.95,WSW,248,0.0,2.0,79,0.00,,,0.00,,2013-02-06 10:32:00,
2013-02-06 05:42:00,35.0,29.0,29.95,WSW,248,0.0,2.0,79,0.00,,,0.00,,2013-02-06 10:42:00,
2013-02-06 05:52:00,35.0,29.0,29.96,WSW,248,0.0,1.0,79,0.00,,,0.00,,2013-02-06 10:52:00,
2013-02-06 06:01:00,36.0,30.0,29.96,WSW,248,0.0,2.0,79,0.00,,,0.00,,2013-02-06 11:01:00,
2013-02-06 06:11:00,36.0,30.0,29.96,WSW,248,0.0,2.0,79,0.00,,,0.00,,2013-02-06 11:11:00,
2013-02-06 06:22:00,36.0,30.0,29.98,WSW,248,0.0,0.0,79,0.00,,,0.00,,2013-02-06 11:22:00,
2013-02-06 06:32:00,36.0,30.0,29.98,WSW,248,0.0,1.0,79,0.00,,,0.00,,2013-02-06 11:32:00,
2013-02-06 06:42:00,36.0,30.0,29.98,WSW,248,0.0,1.0,79,0.00,,,0.00,,2013-02-06 11:42:00,
2013-02-06 06:52:00,37.0,31.0,29.99,WSW,248,0.0,2.0,78,0.00,,,0.00,,2013-02-06 11:52:00,
2013-02-06 07:02:00,38.0,31.0,30.00,WSW,248,0.0,2.0,76,0.00,,,0.00,,2013-02-06 12:02:00,
2013-02-06 07:12:00,38.0,31.0,30.00,WSW,248,0.0,2.0,76,0.00,,,0.00,,2013-02-06 12:12:00,
2013-02-06 07:22:00,38.0,30.0,30.01,WSW,248,0.0,2.0,74,0.00,,,0.00,,2013-02-06 12:22:00,
2013-02-06 07:32:00,39.0,31.0,30.02,WSW,248,0.0,0.0,73,0.00,,,0.00,,2013-02-06 12:32:00,
2013-02-06 07:52:00,39.0,31.0,30.03,WSW,248,1.0,2.0,73,0.00,,,0.00,,2013-02-06 12:52:00,
2013-02-06 08:02:00,38.0,30.0,30.04,WSW,248,0.0,2.0,73,0.00,,,0.00,,2013-02-06 13:02:00,
2013-02-06 08:12:00,38.0,30.0,30.04,WSW,248,0.0,2.0,73,0.00,,,0.00,,2013-02-06 13:12:00,
2013-02-06 08:22:00,40.0,31.0,30.04,WSW,248,0.0,2.0,71,0.00,,,0.00,,2013-02-06 13:22:00,
2013-02-06 08:32:00,42.0,31.0,30.05,WSW,249,0.0,2.0,66,0.00,,,0.00,,2013-02-06 13:32:00,
2013-02-06 08:52:00,44.0,32.0,30.06,West,277,0.0,2.0,63,0.00,,,0.00,,2013-02-06 13:52:00,
2013-02-06 09:02:00,45.0,32.0,30.06,WNW,286,1.0,3.0,61,0.00,,,0.00,,2013-02-06 14:02:00,
2013-02-06 09:22:00,47.0,33.0,30.07,WNW,290,1.0,4.0,57,0.00,,,0.00,,2013-02-06 14:22:00,
2013-02-06 09:32:00,48.0,31.0,30.07,WNW,295,1.0,5.0,52,0.00,,,0.00,,2013-02-06 14:32:00,
2013-02-06 09:52:00,49.0,30.0,30.07,NW,313,2.0,8.0,48,0.00,,,0.00,,2013-02-06 14:52:00,
2013-02-06 10:02:00,51.0,30.0,30.08,West,273,4.0,7.0,45,0.00,,,0.00,,2013-02-06 15:02:00,
2013-02-06 10:11:00,51.0,30.0,30.08,West,273,4.0,7.0,45,0.00,,,0.00,,2013-02-06 15:11:00,
2013-02-06 10:21:00,52.0,31.0,30.08,NW,304,2.0,4.0,44,0.00,,,0.00,,2013-02-06 15:21:00,
2013-02-06 10:32:00,52.0,29.0,30.08,ENE,78,1.0,6.0,41,0.00,,,0.00,,2013-02-06 15:32:00,
2013-02-06 10:42:00,52.0,29.0,30.08,ENE,78,1.0,6.0,41,0.00,,,0.00,,2013-02-06 15:42:00,
2013-02-06 10:52:00,53.0,29.0,30.08,West,279,1.0,6.0,40,0.00,,,0.00,,2013-02-06 15:52:00,
2013-02-06 11:01:00,54.0,29.0,30.09,SSE,163,2.0,5.0,38,0.00,,,0.00,,2013-02-06 16:01:00,
2013-02-06 11:11:00,54.0,29.0,30.09,SSE,163,2.0,5.0,38,0.00,,,0.00,,2013-02-06 16:11:00,
2013-02-06 11:22:00,54.0,28.0,30.09,West,275,2.0,6.0,36,0.00,,,0.00,,2013-02-06 16:22:00,
2013-02-06 11:32:00,54.0,27.0,30.09,West,276,1.0,4.0,35,0.00,,,0.00,,2013-02-06 16:32:00,
2013-02-06 11:42:00,54.0,27.0,30.09,West,276,1.0,4.0,35,0.00,,,0.00,,2013-02-06 16:42:00,
2013-02-06 11:52:00,55.0,28.0,30.09,West,277,2.0,7.0,35,0.00,,,0.00,,2013-02-06 16:52:00,
2013-02-06 12:02:00,56.0,26.0,30.08,WSW,242,2.0,6.0,31,0.00,,,0.00,,2013-02-06 17:02:00,
2013-02-06 12:12:00,56.0,26.0,30.08,WSW,242,2.0,6.0,31,0.00,,,0.00,,2013-02-06 17:12:00,
2013-02-06 12:22:00,56.0,26.0,30.08,West,281,2.0,7.0,31,0.00,,,0.00,,2013-02-06 17:22:00,
2013-02-06 12:32:00,57.0,25.0,30.08,NNW,341,1.0,6.0,29,0.00,,,0.00,,2013-02-06 17:32:00,
2013-02-06 12:42:00,57.0,25.0,30.08,NNW,341,1.0,6.0,29,0.00,,,0.00,,2013-02-06 17:42:00,
2013-02-06 12:52:00,57.0,22.0,30.07,West,274,3.0,6.0,26,0.00,,,0.00,,2013-02-06 17:52:00,
2013-02-06 13:02:00,58.0,23.0,30.07,NNE,26,2.0,5.0,26,0.00,,,0.00,,2013-02-06 18:02:00,
2013-02-06 13:12:00,58.0,23.0,30.07,NNE,26,2.0,5.0,26,0.00,,,0.00,,2013-02-06 18:12:00,
2013-02-06 13:23:00,58.0,20.0,30.07,West,261,1.0,6.0,23,0.00,,,0.00,,2013-02-06 18:23:00,
2013-02-06 13:32:00,59.0,22.0,30.07,WNW,283,1.0,6.0,24,0.00,,,0.00,,2013-02-06 18:32:00,
2013-02-06 13:42:00,59.0,22.0,30.07,WNW,283,1.0,6.0,24,0.00,,,0.00,,2013-02-06 18:42:00,
2013-02-06 13:52:00,58.0,21.0,30.06,WNW,288,1.0,4.0,24,0.00,,,0.00,,2013-02-06 18:52:00,
2013-02-06 14:02:00,58.0,20.0,30.06,WNW,283,1.0,4.0,23,0.00,,,0.00,,2013-02-06 19:02:00,
2013-02-06 14:11:00,58.0,20.0,30.06,WNW,283,1.0,4.0,23,0.00,,,0.00,,2013-02-06 19:11:00,
2013-02-06 14:22:00,58.0,21.0,30.06,West,267,1.0,4.0,24,0.00,,,0.00,,2013-02-06 19:22:00,
2013-02-06 14:32:00,58.0,21.0,30.06,West,267,1.0,4.0,24,0.00,,,0.00,,2013-02-06 19:32:00,
2013-02-06 14:42:00,58.0,21.0,30.06,West,267,1.0,4.0,24,0.00,,,0.00,,2013-02-06 19:42:00,
2013-02-06 14:52:00,58.0,20.0,30.06,NNE,24,0.0,3.0,23,0.00,,,0.00,,2013-02-06 19:52:00,
2013-02-06 15:01:00,58.0,19.0,30.06,West,281,1.0,4.0,22,0.00,,,0.00,,2013-02-06 20:01:00,
2013-02-06 15:21:00,58.0,19.0,30.06,WNW,289,2.0,5.0,22,0.00,,,0.00,,2013-02-06 20:21:00,
2013-02-06 15:32:00,58.0,20.0,30.07,WNW,290,0.0,7.0,23,0.00,,,0.00,,2013-02-06 20:32:00,
2013-02-06 15:42:00,58.0,20.0,30.07,WNW,290,0.0,7.0,23,0.00,,,0.00,,2013-02-06 20:42:00,
2013-02-06 15:52:00,57.0,19.0,30.06,WNW,282,0.0,3.0,22,0.00,,,0.00,,2013-02-06 20:52:00,
2013-02-06 16:02:00,57.0,20.0,30.07,WNW,284,1.0,3.0,23,0.00,,,0.00,,2013-02-06 21:02:00,
2013-02-06 16:11:00,57.0,20.0,30.07,WNW,284,1.0,3.0,23,0.00,,,0.00,,2013-02-06 21:11:00,
2013-02-06 16:21:00,57.0,21.0,30.07,West,276,0.0,4.0,24,0.00,,,0.00,,2013-02-06 21:21:00,
2013-02-06 16:32:00,57.0,20.0,30.07,SW,225,0.0,2.0,23,0.00,,,0.00,,2013-02-06 21:32:00,
2013-02-06 16:42:00,57.0,20.0,30.07,SW,225,0.0,2.0,23,0.00,,,0.00,,2013-02-06 21:42:00,
2013-02-06 16:51:00,56.0,20.0,30.08,NE,43,0.0,4.0,24,0.00,,,0.00,,2013-02-06 21:51:00,
2013-02-06 17:01:00,56.0,21.0,30.09,West,269,0.0,2.0,25,0.00,,,0.00,,2013-02-06 22:01:00,
2013-02-06 17:11:00,56.0,21.0,30.09,West,269,0.0,2.0,25,0.00,,,0.00,,2013-02-06 22:11:00,
2013-02-06 17:22:00,55.0,19.0,30.09,West,269,0.0,3.0,24,0.00,,,0.00,,2013-02-06 22:22:00,
2013-02-06 17:32:00,55.0,22.0,30.09,West,269,0.0,1.0,27,0.00,,,0.00,,2013-02-06 22:32:00,
2013-02-06 17:42:00,55.0,22.0,30.09,West,269,0.0,1.0,27,0.00,,,0.00,,2013-02-06 22:42:00,
2013-02-06 17:52:00,54.0,22.0,30.10,West,269,0.0,1.0,29,0.00,,,0.00,,2013-02-06 22:52:00,
2013-02-06 18:01:00,54.0,22.0,30.10,West,269,0.0,1.0,29,0.00,,,0.00,,2013-02-06 23:01:00,
2013-02-06 18:11:00,54.0,22.0,30.10,West,269,0.0,1.0,29,0.00,,,0.00,,2013-02-06 23:11:00,
2013-02-06 18:21:00,51.0,22.0,30.11,West,269,0.0,1.0,32,0.00,,,0.00,,2013-02-06 23:21:00,
2013-02-06 18:32:00,49.0,24.0,30.12,West,269,0.0,0.0,37,0.00,,,0.00,,2013-02-06 23:32:00,
2013-02-06 18:42:00,49.0,24.0,30.12,West,269,0.0,0.0,37,0.00,,,0.00,,2013-02-06 23:42:00,
2013-02-06 18:52:00,48.0,27.0,30.12,West,269,0.0,0.0,43,0.00,,,0.00,,2013-02-06 23:52:00,
2013-02-06 19:02:00,46.0,26.0,30.12,West,269,0.0,0.0,46,0.00,,,0.00,,2013-02-07 00:02:00,
2013-02-06 19:11:00,46.0,26.0,30.12,West,269,0.0,0.0,46,0.00,,,0.00,,2013-02-07 00:11:00,
2013-02-06 19:22:00,45.0,27.0,30.12,West,269,0.0,0.0,49,0.00,,,0.00,,2013-02-07 00:22:00,
2013-02-06 19:32:00,44.0,27.0,30.14,West,269,0.0,1.0,50,0.00,,,0.00,,2013-02-07 00:32:00,
2013-02-06 19:42:00,44.0,27.0,30.14,West,269,0.0,1.0,50,0.00,,,0.00,,2013-02-07 00:42:00,
2013-02-06 19:52:00,43.0,26.0,30.14,West,269,0.0,1.0,50,0.00,,,0.00,,2013-02-07 00:52:00,
2013-02-06 20:01:00,43.0,26.0,30.14,West,269,0.0,1.0,50,0.00,,,0.00,,2013-02-07 01:01:00,
2013-02-06 20:11:00,43.0,26.0,30.14,West,269,0.0,1.0,50,0.00,,,0.00,,2013-02-07 01:11:00,
2013-02-06 20:21:00,44.0,25.0,30.15,West,269,1.0,2.0,47,0.00,,,0.00,,2013-02-07 01:21:00,
2013-02-06 20:32:00,44.0,25.0,30.15,West,269,0.0,1.0,47,0.00,,,0.00,,2013-02-07 01:32:00,
2013-02-06 20:42:00,44.0,25.0,30.15,West,269,0.0,1.0,47,0.00,,,0.00,,2013-02-07 01:42:00,
2013-02-06 20:52:00,44.0,25.0,30.16,West,269,0.0,1.0,47,0.00,,,0.00,,2013-02-07 01:52:00,
2013-02-06 21:02:00,42.0,25.0,30.17,West,269,0.0,1.0,51,0.00,,,0.00,,2013-02-07 02:02:00,
2013-02-06 21:12:00,42.0,25.0,30.17,West,269,0.0,1.0,51,0.00,,,0.00,,2013-02-07 02:12:00,
2013-02-06 21:21:00,42.0,26.0,30.17,West,269,0.0,2.0,53,0.00,,,0.00,,2013-02-07 02:21:00,
2013-02-06 21:32:00,42.0,26.0,30.17,West,269,0.0,2.0,53,0.00,,,0.00,,2013-02-07 02:32:00,
2013-02-06 21:42:00,42.0,26.0,30.17,West,269,0.0,2.0,53,0.00,,,0.00,,2013-02-07 02:42:00,
2013-02-06 21:51:00,42.0,26.0,30.17,West,269,0.0,2.0,53,0.00,,,0.00,,2013-02-07 02:51:00,
2013-02-06 22:02:00,45.0,25.0,30.16,West,269,0.0,1.0,46,0.00,,,0.00,,2013-02-07 03:02:00,
2013-02-06 22:11:00,45.0,25.0,30.16,West,269,0.0,1.0,46,0.00,,,0.00,,2013-02-07 03:11:00,
2013-02-06 22:21:00,44.0,25.0,30.16,ESE,111,0.0,2.0,46,0.00,,,0.00,,2013-02-07 03:21:00,
2013-02-06 22:32:00,44.0,25.0,30.16,East,86,0.0,2.0,46,0.00,,,0.00,,2013-02-07 03:32:00,
2013-02-06 22:42:00,44.0,25.0,30.16,East,86,0.0,2.0,46,0.00,,,0.00,,2013-02-07 03:42:00,
2013-02-06 22:52:00,44.0,25.0,30.16,East,86,0.0,2.0,46,0.00,,,0.00,,2013-02-07 03:52:00,
2013-02-06 23:01:00,44.0,25.0,30.16,East,86,0.0,1.0,46,0.00,,,0.00,,2013-02-07 04:01:00,
2013-02-06 23:11:00,44.0,25.0,30.16,East,86,0.0,1.0,46,0.00,,,0.00,,2013-02-07 04:11:00,
2013-02-06 23:22:00,42.0,26.0,30.16,East,86,0.0,1.0,52,0.00,,,0.00,,2013-02-07 04:22:00,
2013-02-06 23:32:00,42.0,26.0,30.16,East,86,0.0,1.0,52,0.00,,,0.00,,2013-02-07 04:32:00,
2013-02-06 23:42:00,42.0,26.0,30.16,East,86,0.0,1.0,52,0.00,,,0.00,,2013-02-07 04:42:00,
2013-02-06 23:53:00,39.0,26.0,30.19,East,86,0.0,0.0,59,0.00,,,0.00,,2013-02-07 04:53:00,